TimeIST,TemperatureF,Dew PointF,Humidity,Sea Level PressureIn,VisibilityMPH,Wind Direction,Wind SpeedMPH,Gust SpeedMPH,PrecipitationIn,Events,Conditions,WindDirDegrees,DateUTC
12:10 AM,87.8,59.0,38,29.59,2.5,Calm,Calm,-,N/A,,Haze,0,2013-05-15 18:40:00
2:10 AM,86.0,59.0,40,29.56,2.5,Calm,Calm,-,N/A,,Haze,0,2013-05-15 20:40:00
2:30 AM,85,58,30,29.49,1,Calm,Calm,,,,Haze,,2013-05-15 21:00:00
3:10 AM,84.2,59.0,42,29.56,2.5,Calm,Calm,-,N/A,,Haze,0,2013-05-15 21:40:00
4:10 AM,82.4,59.0,45,29.56,2.5,Calm,Calm,-,N/A,,Haze,0,2013-05-15 22:40:00
5:10 AM,78.8,60.8,54,29.56,2.5,Calm,Calm,-,N/A,,Haze,0,2013-05-15 23:40:00
5:30 AM,86,60,31,29.52,1,West,2.3,,,,Haze,270,2013-05-16 00:00:00
5:40 AM,86.0,59.0,40,29.56,2.5,West,2.3,-,N/A,,Haze,270,2013-05-16 00:10:00
6:10 AM,87.8,59.0,38,29.59,2.5,West,2.3,-,N/A,,Haze,270,2013-05-16 00:40:00
6:40 AM,87.8,60.8,40,29.59,2.5,West,2.3,-,N/A,,Haze,270,2013-05-16 01:10:00
7:10 AM,91.4,60.8,36,29.62,2.5,West,3.5,-,N/A,,Haze,280,2013-05-16 01:40:00
8:10 AM,93.2,60.8,34,29.62,3.1,WSW,4.6,-,N/A,,Haze,250,2013-05-16 02:40:00
8:30 AM,98,65,24,29.55,2,NNW,2.3,,,,Haze,340,2013-05-16 03:00:00
9:10 AM,100.4,66.2,33,29.65,3.7,NW,3.5,-,N/A,,Scattered Clouds,310,2013-05-16 03:40:00
10:10 AM,102.2,64.4,29,29.65,3.7,North,4.6,-,N/A,,Scattered Clouds,350,2013-05-16 04:40:00
11:10 AM,105.8,62.6,24,29.62,3.7,NW,4.6,-,N/A,,Partly Cloudy,310,2013-05-16 05:40:00
11:30 AM,109,64,15,29.51,2,North,6.9,,,,Scattered Clouds,0,2013-05-16 06:00:00
12:10 PM,111.2,64.4,22,29.59,3.7,NNW,5.8,-,N/A,,Partly Cloudy,330,2013-05-16 06:40:00
1:10 PM,111.2,64.4,22,29.56,3.7,North,4.6,-,N/A,,Scattered Clouds,350,2013-05-16 07:40:00
1:40 PM,111.2,64.4,22,29.56,3.7,NNW,9.2,-,N/A,,Mostly Cloudy,340,2013-05-16 08:10:00
2:10 PM,113.0,64.4,21,29.53,3.7,NNW,2.3,-,N/A,,Mostly Cloudy,330,2013-05-16 08:40:00
2:30 PM,110,65,16,29.45,2,North,6.9,,,,Partly Cloudy,0,2013-05-16 09:00:00
2:40 PM,113.0,64.4,21,29.53,3.7,NNE,5.8,-,N/A,,Mostly Cloudy,20,2013-05-16 09:10:00
3:10 PM,113.0,64.4,21,29.53,3.7,NE,2.3,-,N/A,,Mostly Cloudy,50,2013-05-16 09:40:00
3:40 PM,113.0,64.4,21,29.53,3.1,North,6.9,-,N/A,,Haze,350,2013-05-16 10:10:00
4:10 PM,111.2,64.4,22,29.53,2.5,WNW,5.8,-,N/A,,Haze,300,2013-05-16 10:40:00
4:40 PM,111.2,64.4,22,29.50,2.5,WNW,6.9,-,N/A,,Haze,300,2013-05-16 11:10:00
5:10 PM,109.4,64.4,23,29.53,2.5,NW,3.5,-,N/A,,Haze,310,2013-05-16 11:40:00
5:30 PM,109,66,17,29.42,2,NNW,3.5,,,,Haze,340,2013-05-16 12:00:00
5:40 PM,109.4,66.2,25,29.53,2.5,NNW,2.3,-,N/A,,Haze,330,2013-05-16 12:10:00
6:10 PM,105.8,41.0,11,29.53,2.5,NW,5.8,-,N/A,,Haze,320,2013-05-16 12:40:00
6:40 PM,104.0,42.8,12,29.53,2.5,NNE,3.5,-,N/A,,Haze,20,2013-05-16 13:10:00
7:10 PM,102.2,42.8,13,29.53,2.5,ENE,2.3,-,N/A,,Haze,60,2013-05-16 13:40:00
8:10 PM,98.6,41.0,14,29.56,3.1,West,3.5,-,N/A,,Haze,270,2013-05-16 14:40:00
8:30 PM,92,63,29,29.52,2,Calm,Calm,,,,Haze,,2013-05-16 15:00:00
8:40 PM,95.0,42.8,16,29.59,3.1,Calm,Calm,-,N/A,,Haze,0,2013-05-16 15:10:00
9:10 PM,95.0,41.0,15,29.59,3.1,NW,3.5,-,N/A,,Haze,320,2013-05-16 15:40:00
9:40 PM,93.2,42.8,17,29.59,3.1,Calm,Calm,-,N/A,,Haze,0,2013-05-16 16:10:00
10:10 PM,93.2,42.8,17,29.62,3.1,Calm,Calm,-,N/A,,Haze,0,2013-05-16 16:40:00
11:10 PM,89.6,44.6,21,29.62,3.1,WNW,3.5,-,N/A,,Haze,300,2013-05-16 17:40:00
11:30 PM,88,61,30,29.55,2,West,3.5,,,,Haze,270,2013-05-16 18:00:00